Location: Bazinghen
(50.8246°N, 1.6616°E)
Time: 17:29:39
(UTC+00:00)

Cosmos 1356 Rocket - Pass Details

Date: 09 April 2020
Orbit: 542 x 599 km, 81.2° (Epoch: 25 May)

Event Time Altitude Azimuth Distance (km) Brightness Sun altitude
Exits shadow 21:49:54 41° 253° (WSW) 859 4.3 -25.3°
Maximum altitude 21:50:42 47° 287° (WNW) 788 4.3 -25.3°
Drops below altitude 10° 21:54:49 10° 2° (N) 1,919 6.8 -25.7°
Sets 21:57:05 0° 9° (N) 2,814 7.6 -25.9°
